Location: Berg
(47.2344°N, 9.5296°E)
Time: 08:30:19
(UTC+00:00)

Meteor 2-15 Rocket - Visible Passes

Search period start: 11 May 2021 00:00
Search period end: 21 May 2021 00:00
Orbit: 939 x 956 km, 82.5° (Epoch: 10 May)

Date Brightness Start Highest point End Pass type
(mag) Time Alt. Az. Time Alt. Az. Time Alt. Az.
11 May 6.4 20:05:26 10° SW 20:10:41 30° WNW 20:15:59 10° N visible
12 May 7.1 20:23:37 10° WSW 20:28:03 21° WNW 20:32:31 10° NNW visible
13 May 7.3 20:42:28 10° W 20:45:31 14° WNW 20:48:36 10° NNW visible
15 May 6.4 19:28:24 10° SW 19:33:52 34° WNW 19:39:23 10° N visible
16 May 7.1 19:46:26 10° WSW 19:51:12 23° WNW 19:56:00 10° NNW visible
17 May 8.1 03:06:24 10° NE 03:08:19 11° NE 03:10:14 10° ENE visible
17 May 7.4 20:05:01 10° W 20:08:38 16° WNW 20:12:17 10° NNW visible
18 May 7.9 20:24:58 10° WNW 20:26:12 11° NW 20:27:26 10° NW visible
